ALK140 VOMD-VCBI

Flight info

Callsign ALK140
Flight time N/A
Altitude 23000
Route MDI M641 BIKOK BIKOK1A
Aircraft A320/M-SDE3FGHIRWY/LB1

Departure

Time 2026-04-21 12:32
Airport Madurai Airport (VOMD)

Arrival

Time N/A
Airport Bandaranaike International Colombo Airport (VCBI)
Time Latitude Longitude Altitude Speed Heading
2026-04-21 12:09 9.83783 78.08965 415 ft 0 kts 355°
2026-04-21 12:20 9.83775 78.08965 442 ft 3 kts 354°
2026-04-21 12:20 9.83756 78.08967 438 ft 3 kts 354°
2026-04-21 12:22 9.83753 78.08968 428 ft 3 kts 354°
2026-04-21 12:22 9.83733 78.08970 426 ft 3 kts 353°
2026-04-21 12:22 9.83713 78.08972 427 ft 3 kts 354°
2026-04-21 12:23 9.83695 78.08974 429 ft 1 kts 356°
2026-04-21 12:23 9.83690 78.08974 431 ft 0 kts 357°
2026-04-21 12:27 9.83692 78.08973 430 ft 1 kts 349°
2026-04-21 12:28 9.83695 78.08964 432 ft 4 kts 289°
2026-04-21 12:28 9.83667 78.08927 438 ft 9 kts 202°
2026-04-21 12:28 9.83597 78.08926 435 ft 12 kts 184°
2026-04-21 12:28 9.83528 78.08932 434 ft 11 kts 124°
2026-04-21 12:29 9.83492 78.08986 440 ft 10 kts 126°
2026-04-21 12:29 9.83440 78.08987 427 ft 11 kts 247°
2026-04-21 12:29 9.83432 78.08895 440 ft 18 kts 266°
2026-04-21 12:29 9.83421 78.08758 440 ft 21 kts 265°
2026-04-21 12:30 9.83410 78.08602 441 ft 23 kts 266°
2026-04-21 12:30 9.83397 78.08432 432 ft 25 kts 266°
2026-04-21 12:30 9.83384 78.08255 444 ft 24 kts 264°
2026-04-21 12:30 9.83352 78.08156 432 ft 13 kts 243°
2026-04-21 12:31 9.83365 78.08109 436 ft 5 kts 349°
2026-04-21 12:31 9.83377 78.08145 439 ft 5 kts 88°
2026-04-21 12:31 9.83378 78.08153 435 ft 3 kts 88°
2026-04-21 12:31 9.83382 78.08218 437 ft 31 kts 85°
2026-04-21 12:32 9.83416 78.08705 441 ft 104 kts 86°
2026-04-21 12:32 9.83480 78.09623 446 ft 155 kts 87°
2026-04-21 12:32 9.83558 78.10758 961 ft 160 kts 90°
2026-04-21 12:32 9.83638 78.11877 1688 ft 157 kts 89°
2026-04-21 12:33 9.83711 78.12978 2305 ft 160 kts 92°
2026-04-21 12:33 9.83609 78.14164 2605 ft 178 kts 105°
2026-04-21 12:33 9.83245 78.15433 2798 ft 199 kts 115°
2026-04-21 12:33 9.82569 78.16732 3075 ft 223 kts 125°
2026-04-21 12:34 9.81511 78.17990 3495 ft 248 kts 137°
2026-04-21 12:34 9.80063 78.19026 4169 ft 261 kts 152°
2026-04-21 12:34 9.78342 78.19684 4950 ft 270 kts 164°
2026-04-21 12:34 9.76493 78.20184 5702 ft 279 kts 165°
2026-04-21 12:35 9.74585 78.20697 6427 ft 288 kts 165°
2026-04-21 12:35 9.72629 78.21221 7200 ft 293 kts 165°
2026-04-21 12:35 9.70646 78.21751 8011 ft 297 kts 165°
2026-04-21 12:35 9.68637 78.22287 8820 ft 300 kts 165°
2026-04-21 12:36 9.66604 78.22834 9660 ft 304 kts 164°
2026-04-21 12:36 9.64509 78.23396 10080 ft 322 kts 165°
2026-04-21 12:36 9.62272 78.23993 10413 ft 340 kts 165°
2026-04-21 12:36 9.59965 78.24607 11038 ft 346 kts 165°
2026-04-21 12:37 9.57623 78.25229 11733 ft 349 kts 165°
2026-04-21 12:37 9.55264 78.25858 12432 ft 353 kts 165°
2026-04-21 12:37 9.52875 78.26498 13142 ft 356 kts 165°
2026-04-21 12:37 9.50503 78.27135 13781 ft 359 kts 165°
2026-04-21 12:38 9.48076 78.27787 14380 ft 362 kts 165°
2026-04-21 12:38 9.45628 78.28444 14685 ft 364 kts 165°
2026-04-21 12:38 9.43181 78.29103 14780 ft 364 kts 165°
2026-04-21 12:38 9.40737 78.29761 14801 ft 364 kts 165°
2026-04-21 12:39 9.38290 78.30419 14802 ft 363 kts 165°
2026-04-21 12:39 9.35847 78.31075 14810 ft 364 kts 165°
2026-04-21 12:39 9.35019 78.31297 14915 ft 366 kts 165°